Time,TemperatureF,DewpointF,PressureIn,WindDirection,WindDirectionDegrees,WindSpeedMPH,WindSpeedGustMPH,Humidity,HourlyPrecipIn,Conditions,Clouds,dailyrainin,SoftwareType,DateUTC
2013-02-02 00:00:00,11.8,3.6,30.04,WSW,248,19.6,19.6,69,0.00,CLR,,0.00,WeatherDisplay:10.37,2013-02-02 05:00:00,
2013-02-02 00:01:00,11.8,3.6,30.03,SW,225,19.6,19.6,69,0.00,CLR,,0.00,WeatherDisplay:10.37,2013-02-02 05:01:00,
2013-02-02 00:06:00,11.8,3.6,30.03,SW,225,10.4,10.4,69,0.00,CLR,,0.00,WeatherDisplay:10.37,2013-02-02 05:06:00,
2013-02-02 00:11:00,12.0,3.8,30.04,SW,225,19.6,19.6,69,0.00,CLR,,0.00,WeatherDisplay:10.37,2013-02-02 05:11:00,
2013-02-02 00:16:00,12.0,3.8,30.04,SW,225,20.7,20.7,69,0.00,CLR,,0.00,WeatherDisplay:10.37,2013-02-02 05:16:00,
2013-02-02 00:21:00,12.2,4.0,30.03,WSW,248,16.1,16.1,69,0.00,CLR,,0.00,WeatherDisplay:10.37,2013-02-02 05:21:00,
2013-02-02 00:26:00,12.2,4.0,30.04,SW,225,19.6,19.6,69,0.00,CLR,,0.00,WeatherDisplay:10.37,2013-02-02 05:26:00,
2013-02-02 00:31:00,12.2,4.0,30.04,SW,225,15.0,15.0,69,0.00,CLR,,0.00,WeatherDisplay:10.37,2013-02-02 05:31:00,
2013-02-02 00:36:00,12.2,4.0,30.03,SW,225,18.4,18.4,69,0.00,CLR,,0.00,WeatherDisplay:10.37,2013-02-02 05:36:00,
2013-02-02 00:41:00,12.4,4.1,30.03,SW,225,19.6,19.6,69,0.00,CLR,,0.00,WeatherDisplay:10.37,2013-02-02 05:41:00,
2013-02-02 00:46:00,12.4,4.1,30.03,WSW,248,15.0,15.0,69,0.00,CLR,,0.00,WeatherDisplay:10.37,2013-02-02 05:46:00,
2013-02-02 00:51:00,12.2,4.0,30.03,SW,225,17.3,17.3,69,0.00,CLR,,0.00,WeatherDisplay:10.37,2013-02-02 05:51:00,
2013-02-02 00:56:00,12.2,4.3,30.03,SW,225,16.1,16.1,70,0.00,CLR,,0.00,WeatherDisplay:10.37,2013-02-02 05:56:00,
2013-02-02 01:01:00,12.2,4.3,30.03,SW,225,18.4,18.4,70,0.00,CLR,,0.00,WeatherDisplay:10.37,2013-02-02 06:01:00,
2013-02-02 01:06:00,12.2,4.3,30.03,SW,225,18.4,18.4,70,0.00,CLR,,0.00,WeatherDisplay:10.37,2013-02-02 06:06:00,
2013-02-02 01:11:00,12.4,4.5,30.02,SW,225,17.3,17.3,70,0.00,CLR,,0.00,WeatherDisplay:10.37,2013-02-02 06:11:00,
2013-02-02 01:16:00,12.4,4.5,30.03,SW,225,12.7,12.7,70,0.00,CLR,,0.00,WeatherDisplay:10.37,2013-02-02 06:16:00,
2013-02-02 01:21:00,12.4,4.5,30.03,SSW,202,19.6,19.6,70,0.00,CLR,,0.00,WeatherDisplay:10.37,2013-02-02 06:21:00,
2013-02-02 01:26:00,12.4,4.5,30.02,SW,225,17.3,17.3,70,0.00,CLR,,0.00,WeatherDisplay:10.37,2013-02-02 06:26:00,
2013-02-02 01:31:00,12.4,4.5,30.02,North,10,17.3,17.3,70,0.00,CLR,,0.00,WeatherDisplay:10.37,2013-02-02 06:31:00,
2013-02-02 01:36:00,12.2,4.3,30.02,SW,225,17.3,17.3,70,0.00,CLR,,0.00,WeatherDisplay:10.37,2013-02-02 06:36:00,
2013-02-02 01:41:00,12.2,4.6,30.02,WNW,292,17.3,17.3,71,0.00,CLR,,0.00,WeatherDisplay:10.37,2013-02-02 06:41:00,
2013-02-02 01:46:00,12.2,4.6,30.01,SW,225,18.4,18.4,71,0.00,CLR,,0.00,WeatherDisplay:10.37,2013-02-02 06:46:00,
2013-02-02 01:52:00,12.2,4.6,30.01,WSW,248,12.7,12.7,71,0.00,CLR,,0.00,WeatherDisplay:10.37,2013-02-02 06:52:00,
2013-02-02 01:57:00,12.2,4.6,30.01,SW,225,16.1,16.1,71,0.00,CLR,,0.00,WeatherDisplay:10.37,2013-02-02 06:57:00,
2013-02-02 02:02:00,12.2,4.6,30.01,West,270,13.0,13.0,71,0.00,CLR,,0.00,WeatherDisplay:10.37,2013-02-02 07:02:00,
2013-02-02 02:07:00,12.2,4.6,30.01,West,270,12.7,12.7,71,0.00,CLR,,0.00,WeatherDisplay:10.37,2013-02-02 07:07:00,
2013-02-02 02:12:00,12.2,4.9,30.01,SW,225,18.4,18.4,72,0.00,CLR,,0.00,WeatherDisplay:10.37,2013-02-02 07:12:00,
2013-02-02 02:17:00,12.4,5.1,30.01,SW,225,18.4,18.4,72,0.00,CLR,,0.00,WeatherDisplay:10.37,2013-02-02 07:17:00,
2013-02-02 02:22:00,12.6,5.2,30.01,NW,315,19.6,19.6,72,0.00,CLR,,0.00,WeatherDisplay:10.37,2013-02-02 07:22:00,
2013-02-02 02:27:00,12.4,5.1,30.01,WSW,248,19.6,19.6,72,0.00,CLR,,0.00,WeatherDisplay:10.37,2013-02-02 07:27:00,
2013-02-02 02:32:00,12.7,5.4,30.01,SW,225,17.3,17.3,72,0.00,CLR,,0.00,WeatherDisplay:10.37,2013-02-02 07:32:00,
2013-02-02 02:37:00,12.9,5.6,30.01,SW,225,19.6,19.6,72,0.00,CLR,,0.00,WeatherDisplay:10.37,2013-02-02 07:37:00,
2013-02-02 02:42:00,12.9,5.6,30.01,SW,225,16.1,16.1,72,0.00,CLR,,0.00,WeatherDisplay:10.37,2013-02-02 07:42:00,
2013-02-02 02:47:00,13.1,5.8,30.00,SW,225,15.0,15.0,72,0.00,CLR,,0.00,WeatherDisplay:10.37,2013-02-02 07:47:00,
2013-02-02 02:52:00,13.1,5.8,30.00,SW,225,18.4,18.4,72,0.00,CLR,,0.00,WeatherDisplay:10.37,2013-02-02 07:52:00,
2013-02-02 02:57:00,13.3,5.9,30.01,SW,225,19.6,19.6,72,0.00,CLR,,0.00,WeatherDisplay:10.37,2013-02-02 07:57:00,
2013-02-02 03:02:00,13.3,5.9,30.00,SW,225,10.4,10.4,72,0.00,CLR,,0.00,WeatherDisplay:10.37,2013-02-02 08:02:00,
2013-02-02 03:07:00,13.3,5.9,30.00,SW,225,10.4,10.4,72,0.00,CLR,,0.00,WeatherDisplay:10.37,2013-02-02 08:07:00,
2013-02-02 03:12:00,13.3,6.2,30.00,WSW,248,21.3,21.3,73,0.00,CLR,,0.00,WeatherDisplay:10.37,2013-02-02 08:12:00,
2013-02-02 03:17:00,13.3,6.2,30.00,SW,225,15.0,15.0,73,0.00,CLR,,0.00,WeatherDisplay:10.37,2013-02-02 08:17:00,
2013-02-02 03:22:00,13.3,6.2,30.00,SW,225,19.6,19.6,73,0.00,CLR,,0.00,WeatherDisplay:10.37,2013-02-02 08:22:00,
2013-02-02 03:27:00,13.3,6.2,30.00,SW,225,17.3,17.3,73,0.00,CLR,,0.00,WeatherDisplay:10.37,2013-02-02 08:27:00,
2013-02-02 03:32:00,13.3,6.5,29.99,WNW,292,20.7,20.7,74,0.00,CLR,,0.00,WeatherDisplay:10.37,2013-02-02 08:32:00,
2013-02-02 03:37:00,13.3,6.5,29.99,SW,225,15.0,15.0,74,0.00,CLR,,0.00,WeatherDisplay:10.37,2013-02-02 08:37:00,
2013-02-02 03:42:00,13.5,7.0,29.99,NE,45,15.0,15.0,75,0.00,CLR,,0.00,WeatherDisplay:10.37,2013-02-02 08:42:00,
2013-02-02 03:47:00,13.3,6.8,29.99,SW,225,23.0,23.0,75,0.00,CLR,,0.00,WeatherDisplay:10.37,2013-02-02 08:47:00,
2013-02-02 03:52:00,13.3,6.8,29.99,SW,225,19.6,19.6,75,0.00,CLR,,0.00,WeatherDisplay:10.37,2013-02-02 08:52:00,
2013-02-02 03:57:00,13.3,7.1,29.99,SW,225,23.0,23.0,76,0.00,CLR,,0.00,WeatherDisplay:10.37,2013-02-02 08:57:00,
2013-02-02 04:02:00,13.3,7.1,29.99,WSW,248,16.1,16.1,76,0.00,CLR,,0.00,WeatherDisplay:10.37,2013-02-02 09:02:00,
2013-02-02 04:07:00,13.3,7.1,29.98,WSW,248,16.1,16.1,76,0.00,CLR,,0.00,WeatherDisplay:10.37,2013-02-02 09:07:00,
2013-02-02 04:12:00,13.5,7.3,29.98,WSW,248,19.6,19.6,76,0.00,CLR,,0.00,WeatherDisplay:10.37,2013-02-02 09:12:00,
2013-02-02 04:17:00,13.5,7.3,29.98,WSW,248,17.3,17.3,76,0.00,CLR,,0.00,WeatherDisplay:10.37,2013-02-02 09:17:00,
2013-02-02 04:22:00,13.5,7.6,29.97,SW,225,12.7,12.7,77,0.00,CLR,,0.00,WeatherDisplay:10.37,2013-02-02 09:22:00,
2013-02-02 04:27:00,13.6,7.8,29.97,SW,225,12.7,12.7,77,0.00,CLR,,0.00,WeatherDisplay:10.37,2013-02-02 09:27:00,
2013-02-02 04:32:00,13.6,7.8,29.97,SW,225,12.7,12.7,77,0.00,CLR,,0.00,WeatherDisplay:10.37,2013-02-02 09:32:00,
2013-02-02 04:37:00,13.6,7.8,29.96,SW,225,15.0,15.0,77,0.00,CLR,,0.00,WeatherDisplay:10.37,2013-02-02 09:37:00,
2013-02-02 04:42:00,13.5,7.6,29.97,SSW,202,10.4,10.4,77,0.00,CLR,,0.00,WeatherDisplay:10.37,2013-02-02 09:42:00,
2013-02-02 04:47:00,13.6,7.8,29.96,SW,225,12.7,12.7,77,0.00,CLR,,0.00,WeatherDisplay:10.37,2013-02-02 09:47:00,
2013-02-02 04:53:00,13.6,8.1,29.96,SW,225,12.7,12.7,78,0.00,CLR,,0.00,WeatherDisplay:10.37,2013-02-02 09:53:00,
2013-02-02 04:58:00,13.6,8.1,29.96,SW,225,10.4,10.4,78,0.00,CLR,,0.00,WeatherDisplay:10.37,2013-02-02 09:58:00,
2013-02-02 05:03:00,13.6,8.1,29.96,SW,225,10.4,10.4,78,0.00,CLR,,0.00,WeatherDisplay:10.37,2013-02-02 10:03:00,
2013-02-02 05:08:00,13.6,8.3,29.95,SW,225,10.4,10.4,79,0.00,CLR,,0.00,WeatherDisplay:10.37,2013-02-02 10:08:00,
2013-02-02 05:13:00,13.6,8.3,29.95,SW,225,12.7,12.7,79,0.00,CLR,,0.00,WeatherDisplay:10.37,2013-02-02 10:13:00,
2013-02-02 05:18:00,13.8,8.5,29.95,SW,225,9.2,9.2,79,0.00,CLR,,0.00,WeatherDisplay:10.37,2013-02-02 10:18:00,
2013-02-02 05:23:00,13.8,8.5,29.94,SW,225,12.7,12.7,79,0.00,CLR,,0.00,WeatherDisplay:10.37,2013-02-02 10:23:00,
2013-02-02 05:28:00,13.8,8.5,29.95,SW,225,12.7,12.7,79,0.00,CLR,,0.00,WeatherDisplay:10.37,2013-02-02 10:28:00,
2013-02-02 05:33:00,14.0,9.0,29.94,SW,225,12.7,12.7,80,0.00,CLR,,0.00,WeatherDisplay:10.37,2013-02-02 10:33:00,
2013-02-02 05:38:00,14.0,9.0,29.94,SW,225,12.7,12.7,80,0.00,CLR,,0.00,WeatherDisplay:10.37,2013-02-02 10:38:00,
2013-02-02 05:43:00,14.0,9.0,29.94,SW,225,10.4,10.4,80,0.00,CLR,,0.00,WeatherDisplay:10.37,2013-02-02 10:43:00,
2013-02-02 05:48:00,14.2,9.1,29.94,SW,225,15.0,15.0,80,0.00,CLR,,0.00,WeatherDisplay:10.37,2013-02-02 10:48:00,
2013-02-02 05:53:00,14.2,9.1,29.94,SW,225,8.1,8.1,80,0.00,CLR,,0.00,WeatherDisplay:10.37,2013-02-02 10:53:00,
2013-02-02 05:58:00,14.4,9.6,29.93,SSW,202,11.5,11.5,81,0.00,CLR,,0.00,WeatherDisplay:10.37,2013-02-02 10:58:00,
2013-02-02 06:03:00,14.4,9.6,29.93,NW,315,9.2,9.2,81,0.00,CLR,,0.00,WeatherDisplay:10.37,2013-02-02 11:03:00,
2013-02-02 06:08:00,14.5,9.8,29.93,SW,225,9.2,9.2,81,0.00,CLR,,0.00,WeatherDisplay:10.37,2013-02-02 11:08:00,
2013-02-02 06:13:00,14.5,9.8,29.93,SW,225,12.7,12.7,81,0.00,CLR,,0.00,WeatherDisplay:10.37,2013-02-02 11:13:00,
2013-02-02 06:18:00,14.7,9.9,29.93,SSW,202,8.1,8.1,81,0.00,CLR,,0.00,WeatherDisplay:10.37,2013-02-02 11:18:00,
2013-02-02 06:23:00,14.7,9.9,29.93,SW,225,8.1,8.1,81,0.00,CLR,,0.00,WeatherDisplay:10.37,2013-02-02 11:23:00,
2013-02-02 06:28:00,14.9,10.1,29.93,SW,225,11.5,11.5,81,0.00,CLR,,0.00,WeatherDisplay:10.37,2013-02-02 11:28:00,
2013-02-02 06:33:00,15.1,10.3,29.93,SW,225,12.7,12.7,81,0.00,CLR,,0.00,WeatherDisplay:10.37,2013-02-02 11:33:00,
2013-02-02 06:38:00,14.9,10.1,29.93,SW,225,9.2,9.2,81,0.00,CLR,,0.00,WeatherDisplay:10.37,2013-02-02 11:38:00,
2013-02-02 06:43:00,15.1,10.6,29.92,South,180,8.1,8.1,82,0.00,CLR,,0.00,WeatherDisplay:10.37,2013-02-02 11:43:00,
2013-02-02 06:48:00,15.1,10.6,29.92,SW,225,8.1,8.1,82,0.00,CLR,,0.00,WeatherDisplay:10.37,2013-02-02 11:48:00,
2013-02-02 06:53:00,15.1,10.6,29.92,SW,225,9.2,9.2,82,0.00,CLR,,0.00,WeatherDisplay:10.37,2013-02-02 11:53:00,
2013-02-02 06:58:00,15.3,10.8,29.91,South,180,8.3,8.3,82,0.00,CLR,,0.00,WeatherDisplay:10.37,2013-02-02 11:58:00,
2013-02-02 07:03:00,15.3,10.8,29.92,SW,225,10.4,10.4,82,0.00,CLR,,0.00,WeatherDisplay:10.37,2013-02-02 12:03:00,
2013-02-02 07:08:00,15.4,10.9,29.92,SW,225,10.4,10.4,82,0.00,CLR,,0.00,WeatherDisplay:10.37,2013-02-02 12:08:00,
2013-02-02 07:13:00,15.4,10.9,29.92,SW,225,10.4,10.4,82,0.00,CLR,,0.00,WeatherDisplay:10.37,2013-02-02 12:13:00,
2013-02-02 07:18:00,15.4,10.9,29.92,SW,225,8.1,8.1,82,0.00,CLR,,0.00,WeatherDisplay:10.37,2013-02-02 12:18:00,
2013-02-02 07:23:00,15.6,11.1,29.91,SW,225,8.1,8.1,82,0.00,CLR,,0.00,WeatherDisplay:10.37,2013-02-02 12:23:00,
2013-02-02 07:28:00,15.6,11.1,29.91,SW,225,8.1,8.1,82,0.00,CLR,,0.00,WeatherDisplay:10.37,2013-02-02 12:28:00,
2013-02-02 07:33:00,15.8,11.3,29.91,South,180,12.7,12.7,82,0.00,CLR,,0.00,WeatherDisplay:10.37,2013-02-02 12:33:00,
2013-02-02 07:38:00,15.8,11.3,29.91,SW,225,8.1,8.1,82,0.00,CLR,,0.00,WeatherDisplay:10.37,2013-02-02 12:38:00,
2013-02-02 07:43:00,15.8,11.3,29.91,SW,225,6.9,6.9,82,0.00,CLR,,0.00,WeatherDisplay:10.37,2013-02-02 12:43:00,
2013-02-02 07:48:00,16.0,11.5,29.91,SW,225,10.4,10.4,82,0.00,CLR,,0.00,WeatherDisplay:10.37,2013-02-02 12:48:00,
2013-02-02 07:53:00,16.0,11.5,29.91,SW,225,10.4,10.4,82,0.00,CLR,,0.00,WeatherDisplay:10.37,2013-02-02 12:53:00,
2013-02-02 07:58:00,16.0,11.7,29.90,SSW,202,11.5,11.5,83,0.00,CLR,,0.00,WeatherDisplay:10.37,2013-02-02 12:58:00,
2013-02-02 08:03:00,16.0,11.7,29.91,SSW,202,8.1,8.1,83,0.00,CLR,,0.00,WeatherDisplay:10.37,2013-02-02 13:03:00,
2013-02-02 08:08:00,16.0,11.7,29.90,SW,225,9.2,9.2,83,0.00,CLR,,0.00,WeatherDisplay:10.37,2013-02-02 13:08:00,
2013-02-02 08:13:00,16.2,11.9,29.90,SW,225,8.1,8.1,83,0.00,CLR,,0.00,WeatherDisplay:10.37,2013-02-02 13:13:00,
2013-02-02 08:18:00,16.2,11.9,29.90,SSW,202,8.1,8.1,83,0.00,CLR,,0.00,WeatherDisplay:10.37,2013-02-02 13:18:00,
2013-02-02 08:23:00,16.2,11.9,29.90,SW,225,8.1,8.1,83,0.00,CLR,,0.00,WeatherDisplay:10.37,2013-02-02 13:23:00,
2013-02-02 08:28:00,16.3,12.1,29.90,SW,225,8.1,8.1,83,0.00,CLR,,0.00,WeatherDisplay:10.37,2013-02-02 13:28:00,
2013-02-02 08:33:00,16.5,12.3,29.90,South,180,8.1,8.1,83,0.00,CLR,,0.00,WeatherDisplay:10.37,2013-02-02 13:33:00,
2013-02-02 08:38:00,16.7,12.4,29.90,South,180,8.1,8.1,83,0.00,CLR,,0.00,WeatherDisplay:10.37,2013-02-02 13:38:00,
2013-02-02 08:43:00,16.7,12.4,29.90,South,180,9.2,9.2,83,0.00,CLR,,0.00,WeatherDisplay:10.37,2013-02-02 13:43:00,
2013-02-02 08:48:00,16.9,12.6,29.90,SSW,202,8.1,8.1,83,0.00,CLR,,0.00,WeatherDisplay:10.37,2013-02-02 13:48:00,
2013-02-02 08:53:00,17.1,12.8,29.89,SW,225,12.7,12.7,83,0.00,CLR,,0.00,WeatherDisplay:10.37,2013-02-02 13:53:00,
2013-02-02 08:58:00,17.1,12.8,29.89,SSW,202,8.1,8.1,83,0.00,CLR,,0.00,WeatherDisplay:10.37,2013-02-02 13:58:00,
2013-02-02 09:04:00,17.2,13.0,29.89,SW,225,6.9,6.9,83,0.00,CLR,,0.00,WeatherDisplay:10.37,2013-02-02 14:04:00,
2013-02-02 09:09:00,17.2,13.0,29.89,SW,225,6.9,6.9,83,0.00,CLR,,0.00,WeatherDisplay:10.37,2013-02-02 14:09:00,
2013-02-02 09:14:00,17.2,13.0,29.89,SW,225,6.0,8.0,83,0.00,CLR,,0.00,WeatherDisplay:10.37,2013-02-02 14:14:00,
2013-02-02 09:19:00,17.8,13.5,29.89,SW,225,9.2,9.2,83,0.00,CLR,,0.00,WeatherDisplay:10.37,2013-02-02 14:19:00,
2013-02-02 09:24:00,18.0,13.7,29.88,NNE,22,8.1,8.1,83,0.00,CLR,,0.00,WeatherDisplay:10.37,2013-02-02 14:24:00,
2013-02-02 09:29:00,18.0,13.7,29.88,SW,225,8.1,8.1,83,0.00,CLR,,0.00,WeatherDisplay:10.37,2013-02-02 14:29:00,
2013-02-02 09:34:00,18.0,13.7,29.88,SW,225,8.1,8.1,83,0.00,CLR,,0.00,WeatherDisplay:10.37,2013-02-02 14:34:00,
2013-02-02 09:41:00,18.5,14.2,29.88,SW,225,5.8,5.8,83,0.00,CLR,,0.00,WeatherDisplay:10.37,2013-02-02 14:41:00,
2013-02-02 09:46:00,18.5,14.2,29.88,North,10,5.8,5.8,83,0.00,CLR,,0.00,WeatherDisplay:10.37,2013-02-02 14:46:00,
2013-02-02 09:51:00,18.5,14.2,29.88,North,0,5.8,5.8,83,0.00,CLR,,0.00,WeatherDisplay:10.37,2013-02-02 14:51:00,
2013-02-02 09:56:00,18.5,14.2,29.88,North,0,5.8,5.8,83,0.00,CLR,,0.00,WeatherDisplay:10.37,2013-02-02 14:56:00,
2013-02-02 10:01:00,19.0,14.4,29.88,SW,225,6.9,6.9,82,0.00,CLR,,0.00,WeatherDisplay:10.37,2013-02-02 15:01:00,
2013-02-02 10:06:00,19.0,14.4,29.88,SW,225,8.1,8.1,82,0.00,CLR,,0.00,WeatherDisplay:10.37,2013-02-02 15:06:00,
2013-02-02 10:11:00,19.4,15.1,29.87,SW,225,5.8,5.8,83,0.00,CLR,,0.00,WeatherDisplay:10.37,2013-02-02 15:11:00,
2013-02-02 10:16:00,19.6,15.0,29.87,SW,225,8.1,8.1,82,0.00,CLR,,0.00,WeatherDisplay:10.37,2013-02-02 15:16:00,
2013-02-02 10:21:00,19.8,15.2,29.87,SW,225,10.4,10.4,82,0.00,CLR,,0.00,WeatherDisplay:10.37,2013-02-02 15:21:00,
2013-02-02 10:26:00,20.3,15.7,29.87,SW,225,10.4,10.4,82,0.00,CLR,,0.00,WeatherDisplay:10.37,2013-02-02 15:26:00,
2013-02-02 10:31:00,20.7,16.3,29.86,SSW,202,4.6,4.6,83,0.00,CLR,,0.00,WeatherDisplay:10.37,2013-02-02 15:31:00,
2013-02-02 10:36:00,21.2,16.8,29.87,SW,225,6.9,6.9,83,0.00,CLR,,0.00,WeatherDisplay:10.37,2013-02-02 15:36:00,
2013-02-02 10:41:00,21.6,16.9,29.86,SSW,202,8.1,8.1,82,0.00,CLR,,0.00,WeatherDisplay:10.37,2013-02-02 15:41:00,
2013-02-02 10:46:00,21.9,17.3,29.86,SW,225,4.6,4.6,82,0.00,CLR,,0.00,WeatherDisplay:10.37,2013-02-02 15:46:00,
2013-02-02 10:51:00,22.3,17.6,29.86,SW,225,5.8,5.8,82,0.00,CLR,,0.00,WeatherDisplay:10.37,2013-02-02 15:51:00,
2013-02-02 10:56:00,22.6,18.0,29.86,SW,225,4.6,4.6,82,0.00,CLR,,0.00,WeatherDisplay:10.37,2013-02-02 15:56:00,
2013-02-02 11:01:00,23.4,18.7,29.86,SW,225,3.5,3.5,82,0.00,CLR,,0.00,WeatherDisplay:10.37,2013-02-02 16:01:00,
2013-02-02 11:06:00,23.4,18.7,29.86,SW,225,3.8,3.8,82,0.00,CLR,,0.00,WeatherDisplay:10.37,2013-02-02 16:06:00,
2013-02-02 11:11:00,24.1,19.1,29.86,SE,135,3.5,3.5,81,0.00,CLR,,0.00,WeatherDisplay:10.37,2013-02-02 16:11:00,
2013-02-02 11:16:00,24.1,18.8,29.86,South,180,3.5,3.5,80,0.00,CLR,,0.00,WeatherDisplay:10.37,2013-02-02 16:16:00,
2013-02-02 11:21:00,23.9,18.3,29.86,West,270,5.8,5.8,79,0.00,CLR,,0.00,WeatherDisplay:10.37,2013-02-02 16:21:00,
2013-02-02 11:26:00,24.1,18.8,29.85,South,180,3.5,3.5,80,0.00,CLR,,0.00,WeatherDisplay:10.37,2013-02-02 16:26:00,
2013-02-02 11:31:00,24.3,18.7,29.85,SW,225,5.8,5.8,79,0.00,CLR,,0.00,WeatherDisplay:10.37,2013-02-02 16:31:00,
2013-02-02 11:36:00,24.8,19.2,29.85,NW,315,3.5,3.5,79,0.00,CLR,,0.00,WeatherDisplay:10.37,2013-02-02 16:36:00,
2013-02-02 11:41:00,25.0,19.4,29.85,SW,225,5.8,5.8,79,0.00,CLR,,0.00,WeatherDisplay:10.37,2013-02-02 16:41:00,
2013-02-02 11:46:00,25.2,19.6,29.85,West,270,3.5,3.5,79,0.00,CLR,,0.00,WeatherDisplay:10.37,2013-02-02 16:46:00,
2013-02-02 11:51:00,25.2,19.6,29.85,West,270,3.5,3.5,79,0.00,CLR,,0.00,WeatherDisplay:10.37,2013-02-02 16:51:00,
2013-02-02 11:56:00,25.2,19.3,29.85,WSW,248,3.5,3.5,78,0.00,CLR,,0.00,WeatherDisplay:10.37,2013-02-02 16:56:00,
2013-02-02 12:01:00,25.2,19.3,29.85,South,180,2.3,2.3,78,0.00,CLR,,0.00,WeatherDisplay:10.37,2013-02-02 17:01:00,
2013-02-02 12:06:00,25.2,19.3,29.85,South,180,2.3,2.3,78,0.00,CLR,,0.00,WeatherDisplay:10.37,2013-02-02 17:06:00,
2013-02-02 12:11:00,25.2,18.7,29.85,NW,315,3.5,3.5,76,0.00,CLR,,0.00,WeatherDisplay:10.37,2013-02-02 17:11:00,
2013-02-02 12:16:00,25.2,18.7,29.84,NW,315,3.5,3.5,76,0.00,CLR,,0.00,WeatherDisplay:10.37,2013-02-02 17:16:00,
2013-02-02 12:21:00,23.5,17.1,29.84,SW,225,2.3,2.3,76,0.00,CLR,,0.00,WeatherDisplay:10.37,2013-02-02 17:21:00,
2013-02-02 12:26:00,23.5,17.1,29.84,NW,315,5.8,5.8,76,0.00,CLR,,0.00,WeatherDisplay:10.37,2013-02-02 17:26:00,
2013-02-02 12:31:00,23.4,16.6,29.84,NE,45,1.2,0.0,75,0.00,CLR,,0.00,WeatherDisplay:10.37,2013-02-02 17:31:00,
2013-02-02 12:36:00,23.4,16.6,29.84,NE,45,1.2,0.0,75,0.00,CLR,,0.00,WeatherDisplay:10.37,2013-02-02 17:36:00,
2013-02-02 12:41:00,23.4,16.6,29.84,North,0,1.2,0.0,75,0.00,CLR,,0.00,WeatherDisplay:10.37,2013-02-02 17:41:00,
2013-02-02 12:46:00,21.4,15.3,29.84,North,0,8.1,8.1,77,0.00,CLR,,0.00,WeatherDisplay:10.37,2013-02-02 17:46:00,
2013-02-02 12:51:00,20.7,15.5,29.84,North,0,8.1,8.1,80,0.00,CLR,,0.00,WeatherDisplay:10.37,2013-02-02 17:51:00,
2013-02-02 12:56:00,20.7,15.5,29.83,North,0,8.1,8.1,80,0.00,CLR,,0.00,WeatherDisplay:10.37,2013-02-02 17:56:00,
2013-02-02 13:01:00,20.7,15.5,29.83,North,0,8.1,8.1,80,0.00,CLR,,0.00,WeatherDisplay:10.37,2013-02-02 18:01:00,
2013-02-02 13:06:00,20.7,15.5,29.83,North,0,8.1,8.1,80,0.00,CLR,,0.00,WeatherDisplay:10.37,2013-02-02 18:06:00,
2013-02-02 13:11:00,20.7,15.5,29.83,North,0,8.1,8.1,80,0.00,CLR,,0.00,WeatherDisplay:10.37,2013-02-02 18:11:00,
2013-02-02 13:16:00,20.1,15.5,29.83,NW,315,9.2,9.2,82,0.00,CLR,,0.00,WeatherDisplay:10.37,2013-02-02 18:16:00,
2013-02-02 13:21:00,20.1,15.5,29.83,NW,315,9.2,9.2,82,0.00,CLR,,0.00,WeatherDisplay:10.37,2013-02-02 18:21:00,
2013-02-02 13:26:00,20.1,15.5,29.83,North,1,9.2,9.2,82,0.00,CLR,,0.00,WeatherDisplay:10.37,2013-02-02 18:26:00,
2013-02-02 13:31:00,20.1,15.5,29.83,North,0,9.2,9.2,82,0.00,CLR,,0.00,WeatherDisplay:10.37,2013-02-02 18:31:00,
2013-02-02 13:36:00,19.2,15.2,29.83,NNE,22,10.4,10.4,84,0.00,CLR,,0.00,WeatherDisplay:10.37,2013-02-02 18:36:00,
2013-02-02 13:41:00,19.2,15.2,29.83,North,1,10.4,10.4,84,0.00,CLR,,0.00,WeatherDisplay:10.37,2013-02-02 18:41:00,
2013-02-02 13:46:00,19.2,15.2,29.83,North,0,10.4,10.4,84,0.00,CLR,,0.00,WeatherDisplay:10.37,2013-02-02 18:46:00,
2013-02-02 13:51:00,19.2,15.2,29.83,North,0,10.4,10.4,84,0.00,CLR,,0.00,WeatherDisplay:10.37,2013-02-02 18:51:00,
2013-02-02 13:56:00,19.2,15.2,29.83,North,0,10.4,10.4,84,0.00,CLR,,0.00,WeatherDisplay:10.37,2013-02-02 18:56:00,
2013-02-02 14:01:00,18.9,14.8,29.83,NE,45,10.4,10.4,84,0.00,CLR,,0.00,WeatherDisplay:10.37,2013-02-02 19:01:00,
2013-02-02 14:06:00,18.9,14.8,29.83,NE,45,8.1,8.1,84,0.00,CLR,,0.00,WeatherDisplay:10.37,2013-02-02 19:06:00,
2013-02-02 14:11:00,18.9,14.8,29.83,North,0,8.1,8.1,84,0.00,CLR,,0.00,WeatherDisplay:10.37,2013-02-02 19:11:00,
2013-02-02 14:16:00,18.9,14.8,29.83,North,0,6.9,6.9,84,0.00,CLR,,0.00,WeatherDisplay:10.37,2013-02-02 19:16:00,
2013-02-02 14:21:00,18.7,14.6,29.83,North,0,10.4,10.4,84,0.00,CLR,,0.00,WeatherDisplay:10.37,2013-02-02 19:21:00,
2013-02-02 14:26:00,18.7,14.6,29.83,North,0,10.4,10.4,84,0.00,CLR,,0.00,WeatherDisplay:10.37,2013-02-02 19:26:00,
2013-02-02 14:31:00,18.7,14.6,29.83,North,0,10.4,10.4,84,0.00,CLR,,0.00,WeatherDisplay:10.37,2013-02-02 19:31:00,
2013-02-02 14:36:00,18.7,14.6,29.83,North,0,10.4,10.4,84,0.00,CLR,,0.00,WeatherDisplay:10.37,2013-02-02 19:36:00,
2013-02-02 14:41:00,18.7,14.6,29.84,North,0,10.4,10.4,84,0.00,CLR,,0.00,WeatherDisplay:10.37,2013-02-02 19:41:00,
2013-02-02 14:46:00,18.7,14.6,29.83,North,0,10.4,10.4,84,0.00,CLR,,0.00,WeatherDisplay:10.37,2013-02-02 19:46:00,
2013-02-02 14:51:00,18.7,14.6,29.83,North,0,10.4,10.4,84,0.00,CLR,,0.00,WeatherDisplay:10.37,2013-02-02 19:51:00,
2013-02-02 14:56:00,18.7,14.6,29.83,North,0,10.4,10.4,84,0.00,CLR,,0.00,WeatherDisplay:10.37,2013-02-02 19:56:00,
2013-02-02 15:01:00,18.7,14.6,29.83,North,0,10.4,10.4,84,0.00,CLR,,0.00,WeatherDisplay:10.37,2013-02-02 20:01:00,
2013-02-02 15:06:00,18.7,14.6,29.84,North,0,10.4,10.4,84,0.00,CLR,,0.00,WeatherDisplay:10.37,2013-02-02 20:06:00,
2013-02-02 15:11:00,18.7,14.6,29.84,North,0,10.4,10.4,84,0.00,CLR,,0.00,WeatherDisplay:10.37,2013-02-02 20:11:00,
2013-02-02 15:16:00,18.7,14.6,29.84,North,0,10.4,10.4,84,0.00,CLR,,0.00,WeatherDisplay:10.37,2013-02-02 20:16:00,
2013-02-02 15:21:00,18.7,14.6,29.83,North,0,10.4,10.4,84,0.00,CLR,,0.00,WeatherDisplay:10.37,2013-02-02 20:21:00,
2013-02-02 15:26:00,18.7,14.6,29.84,North,0,10.4,10.4,84,0.00,CLR,,0.00,WeatherDisplay:10.37,2013-02-02 20:26:00,
2013-02-02 15:31:00,18.7,14.6,29.84,North,0,10.4,10.4,84,0.00,CLR,,0.00,WeatherDisplay:10.37,2013-02-02 20:31:00,
2013-02-02 15:36:00,18.7,14.6,29.84,North,0,10.4,10.4,84,0.00,CLR,,0.00,WeatherDisplay:10.37,2013-02-02 20:36:00,
2013-02-02 15:41:00,18.7,14.6,29.84,North,0,10.4,10.4,84,0.00,CLR,,0.00,WeatherDisplay:10.37,2013-02-02 20:41:00,
2013-02-02 15:46:00,18.7,14.6,29.84,North,0,10.4,10.4,84,0.00,CLR,,0.00,WeatherDisplay:10.37,2013-02-02 20:46:00,
2013-02-02 15:51:00,18.7,14.6,29.84,North,0,10.4,10.4,84,0.00,CLR,,0.00,WeatherDisplay:10.37,2013-02-02 20:51:00,
2013-02-02 15:56:00,18.7,14.6,29.84,North,0,10.4,10.4,84,0.00,CLR,,0.00,WeatherDisplay:10.37,2013-02-02 20:56:00,
2013-02-02 16:01:00,18.7,14.6,29.84,North,0,10.4,10.4,84,0.00,CLR,,0.00,WeatherDisplay:10.37,2013-02-02 21:01:00,
2013-02-02 16:06:00,18.7,14.6,29.85,North,0,10.4,10.4,84,0.00,CLR,,0.00,WeatherDisplay:10.37,2013-02-02 21:06:00,
2013-02-02 16:11:00,18.7,14.6,29.85,North,0,10.4,10.4,84,0.00,CLR,,0.00,WeatherDisplay:10.37,2013-02-02 21:11:00,
2013-02-02 16:16:00,18.7,14.6,29.85,North,0,10.4,10.4,84,0.00,CLR,,0.00,WeatherDisplay:10.37,2013-02-02 21:16:00,
2013-02-02 16:21:00,18.7,14.6,29.85,North,0,10.4,10.4,84,0.00,CLR,,0.00,WeatherDisplay:10.37,2013-02-02 21:21:00,
2013-02-02 16:26:00,18.7,14.6,29.85,North,0,10.4,10.4,84,0.00,CLR,,0.00,WeatherDisplay:10.37,2013-02-02 21:26:00,
2013-02-02 16:32:00,18.7,14.6,29.85,North,0,10.4,10.4,84,0.00,CLR,,0.00,WeatherDisplay:10.37,2013-02-02 21:32:00,
2013-02-02 16:37:00,18.7,14.6,29.85,North,0,10.4,10.4,84,0.00,CLR,,0.00,WeatherDisplay:10.37,2013-02-02 21:37:00,
2013-02-02 16:42:00,18.7,14.6,29.85,North,0,10.4,10.4,84,0.00,CLR,,0.00,WeatherDisplay:10.37,2013-02-02 21:42:00,
2013-02-02 16:47:00,18.7,14.6,29.85,North,0,10.4,10.4,84,0.00,CLR,,0.00,WeatherDisplay:10.37,2013-02-02 21:47:00,
2013-02-02 16:52:00,18.7,14.6,29.85,North,0,10.4,10.4,84,0.00,CLR,,0.00,WeatherDisplay:10.37,2013-02-02 21:52:00,
2013-02-02 16:57:00,18.7,14.6,29.86,North,0,10.4,10.4,84,0.00,CLR,,0.00,WeatherDisplay:10.37,2013-02-02 21:57:00,
2013-02-02 17:02:00,18.7,14.6,29.85,North,0,10.4,10.4,84,0.00,CLR,,0.00,WeatherDisplay:10.37,2013-02-02 22:02:00,
2013-02-02 17:07:00,18.7,14.6,29.85,North,0,10.4,10.4,84,0.00,CLR,,0.00,WeatherDisplay:10.37,2013-02-02 22:07:00,
2013-02-02 17:12:00,18.7,14.6,29.86,North,0,10.4,10.4,84,0.00,CLR,,0.00,WeatherDisplay:10.37,2013-02-02 22:12:00,
2013-02-02 17:17:00,18.7,14.6,29.86,North,0,10.4,10.4,84,0.00,CLR,,0.00,WeatherDisplay:10.37,2013-02-02 22:17:00,
2013-02-02 17:22:00,18.7,14.6,29.86,North,0,10.4,10.4,84,0.00,CLR,,0.00,WeatherDisplay:10.37,2013-02-02 22:22:00,
2013-02-02 17:27:00,18.7,14.6,29.87,North,0,10.4,10.4,84,0.00,CLR,,0.00,WeatherDisplay:10.37,2013-02-02 22:27:00,
2013-02-02 17:32:00,18.7,14.6,29.87,North,0,10.4,10.4,84,0.00,CLR,,0.00,WeatherDisplay:10.37,2013-02-02 22:32:00,
2013-02-02 17:37:00,18.7,14.6,29.87,North,0,10.4,10.4,84,0.00,CLR,,0.00,WeatherDisplay:10.37,2013-02-02 22:37:00,
2013-02-02 17:42:00,18.7,14.6,29.87,North,0,10.4,10.4,84,0.00,CLR,,0.00,WeatherDisplay:10.37,2013-02-02 22:42:00,
2013-02-02 17:47:00,18.7,14.6,29.87,North,0,10.4,10.4,84,0.00,CLR,,0.00,WeatherDisplay:10.37,2013-02-02 22:47:00,
2013-02-02 17:52:00,18.7,14.6,29.87,North,0,10.4,10.4,84,0.00,CLR,,0.00,WeatherDisplay:10.37,2013-02-02 22:52:00,
2013-02-02 17:57:00,18.7,14.6,29.88,North,0,10.4,10.4,84,0.00,CLR,,0.00,WeatherDisplay:10.37,2013-02-02 22:57:00,
2013-02-02 18:02:00,18.7,14.6,29.88,North,0,10.4,10.4,84,0.00,CLR,,0.00,WeatherDisplay:10.37,2013-02-02 23:02:00,
2013-02-02 18:07:00,18.7,14.6,29.88,North,0,10.4,10.4,84,0.00,CLR,,0.00,WeatherDisplay:10.37,2013-02-02 23:07:00,
2013-02-02 18:12:00,18.7,14.6,29.88,North,0,10.4,10.4,84,0.00,CLR,,0.00,WeatherDisplay:10.37,2013-02-02 23:12:00,
2013-02-02 18:17:00,18.7,14.6,29.88,North,0,10.4,10.4,84,0.00,CLR,,0.00,WeatherDisplay:10.37,2013-02-02 23:17:00,
2013-02-02 18:22:00,18.7,14.6,29.88,North,0,10.4,10.4,84,0.00,CLR,,0.00,WeatherDisplay:10.37,2013-02-02 23:22:00,
2013-02-02 18:27:00,18.7,14.6,29.88,North,0,10.4,10.4,84,0.00,CLR,,0.00,WeatherDisplay:10.37,2013-02-02 23:27:00,
2013-02-02 18:32:00,18.7,14.6,29.89,North,0,10.4,10.4,84,0.00,CLR,,0.00,WeatherDisplay:10.37,2013-02-02 23:32:00,
2013-02-02 18:37:00,18.7,14.6,29.89,North,0,10.4,10.4,84,0.00,CLR,,0.00,WeatherDisplay:10.37,2013-02-02 23:37:00,
2013-02-02 18:42:00,18.7,14.6,29.89,North,0,10.4,10.4,84,0.00,CLR,,0.00,WeatherDisplay:10.37,2013-02-02 23:42:00,
2013-02-02 18:47:00,18.7,14.6,29.89,North,0,10.4,10.4,84,0.00,CLR,,0.00,WeatherDisplay:10.37,2013-02-02 23:47:00,
2013-02-02 18:52:00,18.7,14.6,29.89,North,0,10.4,10.4,84,0.00,CLR,,0.00,WeatherDisplay:10.37,2013-02-02 23:52:00,
2013-02-02 18:57:00,18.7,14.6,29.89,North,0,10.4,10.4,84,0.00,CLR,,0.00,WeatherDisplay:10.37,2013-02-02 23:57:00,
2013-02-02 19:02:00,18.7,14.6,29.89,North,0,10.4,10.4,84,0.00,CLR,,0.00,WeatherDisplay:10.37,2013-02-03 00:02:00,
2013-02-02 19:07:00,18.7,14.6,29.90,North,0,10.4,10.4,84,0.00,CLR,,0.00,WeatherDisplay:10.37,2013-02-03 00:07:00,
2013-02-02 19:12:00,18.7,14.6,29.90,North,0,10.4,10.4,84,0.00,CLR,,0.00,WeatherDisplay:10.37,2013-02-03 00:12:00,
2013-02-02 19:17:00,18.7,14.6,29.90,North,0,10.4,10.4,84,0.00,CLR,,0.00,WeatherDisplay:10.37,2013-02-03 00:17:00,
2013-02-02 19:22:00,18.7,14.6,29.90,North,0,10.4,10.4,84,0.00,CLR,,0.00,WeatherDisplay:10.37,2013-02-03 00:22:00,
2013-02-02 19:27:00,18.7,14.6,29.90,North,0,10.4,10.4,84,0.00,CLR,,0.00,WeatherDisplay:10.37,2013-02-03 00:27:00,
2013-02-02 19:32:00,18.7,14.6,29.90,North,0,10.4,10.4,84,0.00,CLR,,0.00,WeatherDisplay:10.37,2013-02-03 00:32:00,
2013-02-02 19:37:00,18.7,14.6,29.90,North,0,10.4,10.4,84,0.00,CLR,,0.00,WeatherDisplay:10.37,2013-02-03 00:37:00,
2013-02-02 19:42:00,18.7,14.6,29.90,North,0,10.4,10.4,84,0.00,CLR,,0.00,WeatherDisplay:10.37,2013-02-03 00:42:00,
2013-02-02 19:47:00,18.7,14.6,29.90,North,0,10.4,10.4,84,0.00,CLR,,0.00,WeatherDisplay:10.37,2013-02-03 00:47:00,
2013-02-02 19:52:00,18.7,14.6,29.90,North,0,10.4,10.4,84,0.00,CLR,,0.00,WeatherDisplay:10.37,2013-02-03 00:52:00,
2013-02-02 19:57:00,18.7,14.6,29.90,North,0,10.4,10.4,84,0.00,CLR,,0.00,WeatherDisplay:10.37,2013-02-03 00:57:00,
2013-02-02 20:02:00,18.7,14.6,29.90,North,0,10.4,10.4,84,0.00,CLR,,0.00,WeatherDisplay:10.37,2013-02-03 01:02:00,
2013-02-02 20:07:00,18.7,14.6,29.90,North,0,10.4,10.4,84,0.00,CLR,,0.00,WeatherDisplay:10.37,2013-02-03 01:07:00,
2013-02-02 20:12:00,18.7,14.6,29.91,North,0,10.4,10.4,84,0.00,CLR,,0.00,WeatherDisplay:10.37,2013-02-03 01:12:00,
2013-02-02 20:17:00,18.7,14.6,29.90,North,0,10.4,10.4,84,0.00,CLR,,0.00,WeatherDisplay:10.37,2013-02-03 01:17:00,
2013-02-02 20:22:00,18.7,14.6,29.90,North,0,10.4,10.4,84,0.00,CLR,,0.00,WeatherDisplay:10.37,2013-02-03 01:22:00,
2013-02-02 20:27:00,18.7,14.6,29.90,North,0,10.4,10.4,84,0.00,CLR,,0.00,WeatherDisplay:10.37,2013-02-03 01:27:00,
2013-02-02 20:32:00,18.7,14.6,29.90,North,0,10.4,10.4,84,0.00,CLR,,0.00,WeatherDisplay:10.37,2013-02-03 01:32:00,
2013-02-02 20:37:00,18.7,14.6,29.90,North,0,10.4,10.4,84,0.00,CLR,,0.00,WeatherDisplay:10.37,2013-02-03 01:37:00,
2013-02-02 20:42:00,18.7,14.6,29.90,North,0,10.4,10.4,84,0.00,CLR,,0.00,WeatherDisplay:10.37,2013-02-03 01:42:00,
2013-02-02 20:47:00,18.7,14.6,29.90,North,0,10.4,10.4,84,0.00,CLR,,0.00,WeatherDisplay:10.37,2013-02-03 01:47:00,
2013-02-02 20:52:00,18.7,14.6,29.89,North,0,10.4,10.4,84,0.00,CLR,,0.00,WeatherDisplay:10.37,2013-02-03 01:52:00,
2013-02-02 20:57:00,18.7,14.6,29.89,North,0,10.4,10.4,84,0.00,CLR,,0.00,WeatherDisplay:10.37,2013-02-03 01:57:00,
2013-02-02 21:02:00,18.7,14.6,29.89,North,0,10.4,10.4,84,0.00,CLR,,0.00,WeatherDisplay:10.37,2013-02-03 02:02:00,
2013-02-02 21:07:00,18.7,14.6,29.90,North,0,10.4,10.4,84,0.00,CLR,,0.00,WeatherDisplay:10.37,2013-02-03 02:07:00,
2013-02-02 21:12:00,18.7,14.6,29.89,North,0,10.4,10.4,84,0.00,CLR,,0.00,WeatherDisplay:10.37,2013-02-03 02:12:00,
2013-02-02 21:17:00,12.9,6.5,29.89,NNW,338,10.4,10.4,75,0.00,CLR,,0.00,WeatherDisplay:10.37,2013-02-03 02:17:00,
2013-02-02 21:22:00,12.6,6.1,29.90,North,0,2.3,0.0,75,0.00,CLR,,0.00,WeatherDisplay:10.37,2013-02-03 02:22:00,
2013-02-02 21:27:00,12.4,6.0,29.89,North,0,1.2,1.2,75,0.00,CLR,,0.00,WeatherDisplay:10.37,2013-02-03 02:27:00,
2013-02-02 21:32:00,12.2,5.8,29.89,North,0,2.3,0.0,75,0.00,CLR,,0.00,WeatherDisplay:10.37,2013-02-03 02:32:00,
2013-02-02 21:37:00,12.2,5.8,29.88,North,0,2.3,2.3,75,0.00,CLR,,0.00,WeatherDisplay:10.37,2013-02-03 02:37:00,
2013-02-02 21:42:00,11.8,5.4,29.89,North,0,1.2,0.0,75,0.00,CLR,,0.00,WeatherDisplay:10.37,2013-02-03 02:42:00,
2013-02-02 21:47:00,11.7,5.3,29.89,NW,315,0.0,0.0,75,0.00,CLR,,0.00,WeatherDisplay:10.37,2013-02-03 02:47:00,
2013-02-02 21:52:00,11.5,5.1,29.89,NW,315,1.2,0.0,75,0.00,CLR,,0.00,WeatherDisplay:10.37,2013-02-03 02:52:00,
2013-02-02 21:57:00,11.1,4.7,29.89,NW,315,1.2,1.2,75,0.00,CLR,,0.00,WeatherDisplay:10.37,2013-02-03 02:57:00,
2013-02-02 22:02:00,10.9,4.9,29.89,NW,315,2.3,2.3,76,0.00,CLR,,0.00,WeatherDisplay:10.37,2013-02-03 03:02:00,
2013-02-02 22:07:00,10.9,4.9,29.89,North,0,1.6,0.0,76,0.00,CLR,,0.00,WeatherDisplay:10.37,2013-02-03 03:07:00,
2013-02-02 22:12:00,10.9,4.9,29.88,North,0,1.2,0.0,76,0.00,CLR,,0.00,WeatherDisplay:10.37,2013-02-03 03:12:00,
2013-02-02 22:17:00,10.8,5.0,29.89,North,0,1.2,0.0,77,0.00,CLR,,0.00,WeatherDisplay:10.37,2013-02-03 03:17:00,
2013-02-02 22:22:00,10.4,4.6,29.89,NW,315,0.0,0.0,77,0.00,CLR,,0.00,WeatherDisplay:10.37,2013-02-03 03:22:00,
2013-02-02 22:27:00,10.2,4.4,29.89,NW,315,0.0,0.0,77,0.00,CLR,,0.00,WeatherDisplay:10.37,2013-02-03 03:27:00,
2013-02-02 22:32:00,9.3,3.3,29.89,West,270,0.0,0.0,76,0.00,CLR,,0.00,WeatherDisplay:10.37,2013-02-03 03:32:00,
2013-02-02 22:37:00,9.0,2.9,29.88,West,270,1.2,0.0,76,0.00,CLR,,0.00,WeatherDisplay:10.37,2013-02-03 03:37:00,
2013-02-02 22:42:00,8.4,2.4,29.89,West,270,0.0,0.0,76,0.00,CLR,,0.00,WeatherDisplay:10.37,2013-02-03 03:42:00,
2013-02-02 22:47:00,8.1,2.1,29.88,SW,225,1.2,0.0,76,0.00,CLR,,0.00,WeatherDisplay:10.37,2013-02-03 03:47:00,
2013-02-02 22:52:00,7.9,2.2,29.88,SW,225,1.2,0.0,77,0.00,CLR,,0.00,WeatherDisplay:10.37,2013-02-03 03:52:00,
2013-02-02 22:57:00,7.5,1.8,29.88,SW,225,1.2,0.0,77,0.00,CLR,,0.00,WeatherDisplay:10.37,2013-02-03 03:57:00,
2013-02-02 23:02:00,7.3,1.6,29.88,SW,225,1.2,0.0,77,0.00,CLR,,0.00,WeatherDisplay:10.37,2013-02-03 04:02:00,
2013-02-02 23:07:00,7.3,1.6,29.88,SW,225,1.2,0.0,77,0.00,CLR,,0.00,WeatherDisplay:10.37,2013-02-03 04:07:00,
2013-02-02 23:12:00,7.0,1.6,29.88,SW,225,1.2,0.0,78,0.00,CLR,,0.00,WeatherDisplay:10.37,2013-02-03 04:12:00,
2013-02-02 23:17:00,6.8,1.4,29.88,SW,225,0.0,0.0,78,0.00,CLR,,0.00,WeatherDisplay:10.37,2013-02-03 04:17:00,
2013-02-02 23:22:00,6.6,1.2,29.88,SW,225,0.0,0.0,78,0.00,CLR,,0.00,WeatherDisplay:10.37,2013-02-03 04:22:00,
2013-02-02 23:27:00,6.3,0.9,29.88,SW,225,0.0,0.0,78,0.00,CLR,,0.00,WeatherDisplay:10.37,2013-02-03 04:27:00,
2013-02-02 23:32:00,6.3,1.1,29.88,SW,225,1.2,0.0,79,0.00,CLR,,0.00,WeatherDisplay:10.37,2013-02-03 04:32:00,
2013-02-02 23:37:00,6.3,1.1,29.88,SW,225,0.0,0.0,79,0.00,CLR,,0.00,WeatherDisplay:10.37,2013-02-03 04:37:00,
2013-02-02 23:42:00,6.1,1.0,29.87,SW,225,1.2,0.0,79,0.00,CLR,,0.00,WeatherDisplay:10.37,2013-02-03 04:42:00,
2013-02-02 23:47:00,6.1,1.0,29.88,SW,225,1.2,0.0,79,0.00,CLR,,0.00,WeatherDisplay:10.37,2013-02-03 04:47:00,
2013-02-02 23:52:00,5.9,0.8,29.87,SW,225,0.0,0.0,79,0.00,CLR,,0.00,WeatherDisplay:10.37,2013-02-03 04:52:00,
2013-02-02 23:57:00,5.9,1.1,29.87,SW,225,0.0,0.0,80,0.00,CLR,,0.00,WeatherDisplay:10.37,2013-02-03 04:57:00,